Weather History for Phoenix Deer Valley, AZ

Change the Weather History Date:

Friday, April 12, 2013

  Actual Average Record
Temperature  
Mean Temperature 70 °F -  
Max Temperature 82 °F 77 °F 90 °F (2002)
Min Temperature 57 °F 52 °F 42 °F (1998)
Cooling Degree Days 4    
Growing Degree Days 20 (Base 50)    
Moisture  
Dew Point 25 °F    
Average Humidity 18    
Maximum Humidity 31    
Minimum Humidity 11    
Precipitation  
Precipitation 0.00 in - - ()
Sea Level Pressure  
Sea Level Pressure 29.71 in    
Wind  
Wind Speed 4 mph (SE)    
Max Wind Speed 9 mph    
Max Gust Speed -    
Visibility 10 miles    
Events      
Averages and records for this station are not official NWS values.
T = Trace of Precipitation, MM = Missing Value Source: NWS Daily Summary

Daily Weather History Graph

Daily Weather History Graph

Search for Another Location

Airport:

Trip Planner

Search our weather history database for the weather conditions in past years. The results will help you decide how hot, cold, wet, or windy it might be!

Date:

Astronomy

Apr. 12, 2013 Rise Set
Actual Time 6:01 AM MST 6:57 PM MST
Civil Twilight 5:35 AM MST 7:22 PM MST
Nautical Twilight 5:05 AM MST 7:53 PM MST
Astronomical Twilight 4:34 AM MST 8:24 PM MST
Moon 7:19 AM MST (4/12) 9:24 PM MST (4/12)
Length of Visible Light 13h 47m
Length of Day
12h 56m
Waxing Crescent, 6% of the Moon is Illuminated
Apr 12
Waxing Crescent
Apr 18
First Quarter
Apr 25
Full
May 2
Last Quarter
May 9
New

Hourly Weather History & Observations

Time (MST) Temp. Dew Point Humidity Pressure Visibility Wind Dir Wind Speed Gust Speed Precip Events Conditions
12:53 AM 63.0 °F 26.1 °F 25% 29.72 in 10.0 mi NNE 5.8 mph - N/A   Clear
1:53 AM 60.1 °F 26.1 °F 27% 29.71 in 10.0 mi Calm Calm - N/A   Clear
2:53 AM 61.0 °F 25.0 °F 25% 29.70 in 10.0 mi NNE 9.2 mph - N/A   Clear
3:53 AM 59.0 °F 26.1 °F 28% 29.71 in 10.0 mi Calm Calm - N/A   Clear
4:53 AM 57.9 °F 27.0 °F 31% 29.71 in 10.0 mi Calm Calm - N/A   Clear
5:53 AM 60.1 °F 26.1 °F 27% 29.71 in 10.0 mi NE 9.2 mph - N/A   Clear
6:53 AM 60.1 °F 27.0 °F 28% 29.73 in 10.0 mi NE 4.6 mph - N/A   Clear
7:53 AM 64.9 °F 28.0 °F 25% 29.75 in 10.0 mi Calm Calm - N/A   Clear
8:53 AM 70.0 °F 27.0 °F 20% 29.75 in 10.0 mi Calm Calm - N/A   Clear
9:53 AM 73.9 °F 26.1 °F 17% 29.75 in 10.0 mi South 4.6 mph - N/A   Clear
10:53 AM 77.0 °F 25.0 °F 15% 29.75 in 10.0 mi Calm Calm - N/A   Clear
11:31 AM 78.8 °F 23.0 °F 13% 29.79 in 10.0 mi South 5.8 mph - N/A   Clear
11:53 AM 80.1 °F 24.1 °F 13% 29.73 in 10.0 mi SW 8.1 mph - N/A   Clear
12:53 PM 82.0 °F 25.0 °F 12% 29.72 in 10.0 mi Variable 3.5 mph - N/A   Clear
1:53 PM 82.0 °F 23.0 °F 11% 29.70 in 10.0 mi Calm Calm - N/A   Clear
2:53 PM 82.9 °F 24.1 °F 12% 29.68 in 10.0 mi WSW 8.1 mph - N/A   Clear
3:53 PM 82.0 °F 21.9 °F 11% 29.66 in 10.0 mi Calm Calm - N/A   Clear
4:53 PM 82.9 °F 21.9 °F 11% 29.65 in 10.0 mi South 5.8 mph - N/A   Clear
5:53 PM 82.9 °F 23.0 °F 11% 29.65 in 10.0 mi SSW 9.2 mph - N/A   Clear
6:53 PM 80.1 °F 21.0 °F 11% 29.66 in 10.0 mi SSW 9.2 mph - N/A   Clear
7:53 PM 77.0 °F 21.9 °F 13% 29.68 in 10.0 mi Calm Calm - N/A   Clear
8:53 PM 73.9 °F 23.0 °F 15% 29.71 in 10.0 mi SE 3.5 mph - N/A   Clear
9:53 PM 73.0 °F 25.0 °F 17% 29.73 in 10.0 mi East 6.9 mph - N/A   Clear
10:53 PM 68.0 °F 24.1 °F 19% 29.74 in 10.0 mi Calm Calm - N/A   Clear
11:53 PM 64.9 °F 25.0 °F 22% 29.73 in 10.0 mi East 4.6 mph - N/A   Clear